| time (UTC) | temp F | wind direction | speed MPH | gust MPH | rain 1hr in | rain 24hr in | rain mn in | humidity % | barometer mb |
| 20260505063038 | 63 | 226 | 5.0 | 14.0 | 0.00 | 0.00 | 0.00 | 67 | 1006.4 |
| 20260505061537 | 63 | 216 | 7.0 | 16.0 | 0.00 | 0.00 | 0.00 | 67 | 1006.5 |
| 20260505060045 | 63 | 227 | 6.0 | 20.0 | 0.00 | 0.00 | 0.00 | 67 | 1006.6 |
| 20260505054534 | 63 | 171 | 6.0 | 16.0 | 0.00 | 0.00 | 0.00 | 66 | 1006.8 |
| 20260505053031 | 63 | 190 | 6.0 | 11.0 | 0.00 | 0.00 | 0.00 | 66 | 1006.8 |
| 20260505051530 | 63 | 252 | 7.0 | 13.0 | 0.00 | 0.00 | 0.00 | 67 | 1006.8 |
| 20260505041525 | 62 | 200 | 6.0 | 11.0 | 0.00 | 0.00 | 0.00 | 69 | 1006.7 |
| 20260505040020 | 62 | 167 | 7.0 | 10.0 | 0.00 | 0.00 | 0.00 | 68 | 1006.5 |
| 20260505034519 | 62 | 184 | 6.0 | 10.0 | 0.00 | 0.00 | 0.00 | 68 | 1006.6 |
| 20260505033019 | 63 | 174 | 5.0 | 10.0 | 0.00 | 0.00 | 0.00 | 68 | 1006.6 |
| 20260505031518 | 63 | 173 | 7.0 | 12.0 | 0.00 | 0.00 | 0.00 | 67 | 1006.6 |
| 20260505030018 | 63 | 173 | 7.0 | 10.0 | 0.00 | 0.00 | 0.00 | 67 | 1006.8 |
| 20260505024518 | 63 | 185 | 6.0 | 10.0 | 0.00 | 0.00 | 0.00 | 67 | 1006.7 |
| 20260505023022 | 63 | 168 | 7.0 | 10.0 | 0.00 | 0.00 | 0.00 | 67 | 1006.7 |
| 20260505021521 | 63 | 183 | 7.0 | 11.0 | 0.00 | 0.00 | 0.00 | 67 | 1006.7 |
| 20260505020017 | 63 | 171 | 9.0 | 12.0 | 0.00 | 0.00 | 0.00 | 66 | 1006.6 |
| 20260505014516 | 63 | 176 | 8.0 | 11.0 | 0.00 | 0.00 | 0.00 | 66 | 1006.7 |
| 20260505013015 | 63 | 176 | 7.0 | 10.0 | 0.00 | 0.00 | 0.00 | 66 | 1006.7 |
| 20260505011613 | 63 | 172 | 6.0 | 8.0 | 0.00 | 0.00 | 0.00 | 66 | 1006.6 |
| 20260505010110 | 64 | 175 | 5.0 | 9.0 | 0.00 | 0.00 | 0.00 | 65 | 1006.6 |
| 20260505004554 | 64 | 184 | 4.0 | 8.0 | 0.00 | 0.00 | 0.00 | 64 | 1006.7 |
| 20260505003057 | 65 | 206 | 3.0 | 12.0 | 0.00 | 0.00 | 0.00 | 64 | 1006.9 |
| 20260505001554 | 65 | 218 | 5.0 | 11.0 | 0.00 | 0.00 | 0.00 | 63 | 1006.9 |
| 20260505000100 | 66 | 205 | 5.0 | 19.0 | 0.00 | 0.00 | 0.00 | 61 | 1006.9 |
| 20260504234552 | 67 | 238 | 4.0 | 12.0 | 0.00 | 0.00 | 0.00 | 61 | 1006.8 |
| 20260504233100 | 67 | 223 | 4.0 | 17.0 | 0.00 | 0.00 | 0.00 | 61 | 1006.7 |
| 20260504231552 | 67 | 271 | 8.0 | 18.0 | 0.00 | 0.00 | 0.00 | 60 | 1006.8 |
| 20260504230059 | 67 | 171 | 6.0 | 15.0 | 0.00 | 0.00 | 0.00 | 60 | 1006.9 |
| 20260504224550 | 68 | 257 | 10.0 | 19.0 | 0.00 | 0.00 | 0.00 | 60 | 1007.1 |
| 20260504223058 | 68 | 234 | 8.0 | 13.0 | 0.00 | 0.00 | 0.00 | 60 | 1007.2 |
| 20260504221550 | 67 | 238 | 8.0 | 21.0 | 0.00 | 0.00 | 0.00 | 60 | 1006.8 |
| 20260504220049 | 68 | 222 | 7.0 | 14.0 | 0.00 | 0.00 | 0.00 | 59 | 1007.3 |
| 20260504214559 | 68 | 264 | 7.0 | 18.0 | 0.00 | 0.00 | 0.00 | 60 | 1007.1 |
| 20260504213056 | 68 | 273 | 11.0 | 24.0 | 0.00 | 0.00 | 0.00 | 58 | 1007.2 |
| 20260504211552 | 69 | 253 | 11.0 | 25.0 | 0.00 | 0.00 | 0.00 | 57 | 1006.9 |
| 20260504210047 | 70 | 233 | 9.0 | 18.0 | 0.00 | 0.00 | 0.00 | 57 | 1006.7 |
| 20260504204545 | 68 | 217 | 4.0 | 19.0 | 0.00 | 0.00 | 0.00 | 58 | 1006.8 |
| 20260504203046 | 69 | 238 | 11.0 | 22.0 | 0.00 | 0.00 | 0.00 | 56 | 1006.9 |
| 20260504201558 | 70 | 236 | 9.0 | 21.0 | 0.00 | 0.00 | 0.00 | 56 | 1007.0 |
| 20260504200045 | 70 | 274 | 7.0 | 13.0 | 0.00 | 0.00 | 0.00 | 60 | 1006.9 |
| 20260504194548 | 69 | 246 | 13.0 | 26.0 | 0.00 | 0.00 | 0.00 | 56 | 1006.9 |
| 20260504193040 | 70 | 202 | 11.0 | 21.0 | 0.00 | 0.00 | 0.00 | 54 | 1007.3 |
| 20260504191545 | 70 | 250 | 11.0 | 19.0 | 0.00 | 0.00 | 0.00 | 57 | 1007.3 |
| 20260504190037 | 69 | 188 | 8.0 | 17.0 | 0.00 | 0.00 | 0.00 | 57 | 1007.4 |
| 20260504184540 | 69 | 219 | 6.0 | 16.0 | 0.00 | 0.00 | 0.00 | 60 | 1007.6 |
| 20260504183032 | 68 | 230 | 7.0 | 19.0 | 0.00 | 0.00 | 0.00 | 59 | 1007.6 |
| 20260504181536 | 68 | 187 | 12.0 | 19.0 | 0.00 | 0.00 | 0.00 | 62 | 1007.6 |
| 20260504180030 | 68 | 229 | 9.0 | 21.0 | 0.00 | 0.00 | 0.00 | 60 | 1008.0 |
| 20260504174525 | 67 | 225 | 8.0 | 27.0 | 0.00 | 0.00 | 0.00 | 61 | 1008.3 |
| 20260504173024 | 66 | 263 | 12.0 | 24.0 | 0.00 | 0.00 | 0.00 | 60 | 1008.3 |
| 20260504171521 | 66 | 242 | 11.0 | 18.0 | 0.00 | 0.00 | 0.00 | 61 | 1008.5 |
| 20260504081537 | 48 | 169 | 5.0 | 7.0 | 0.00 | 0.00 | 0.00 | 67 | 1012.4 |